Location: Stull Observatory
(42.2506°N, 77.7903°W)
Time: 22:27:21
(UTC-04:00)

ISS - All Passes

Search period start: 11 July 2014 00:00
Search period end: 21 July 2014 00:00
Orbit: 413 x 420 km, 51.6° (Epoch: 11 July)

Date Brightness Start Highest point End Pass type
(mag) Time Alt. Az. Time Alt. Az. Time Alt. Az.
11 Jul - 07:01:05 10° SW 07:04:19 48° SE 07:07:35 10° ENE daylight
11 Jul - 08:38:12 10° W 08:41:12 29° NNW 08:44:13 10° NE daylight
11 Jul - 10:16:30 10° NW 10:18:45 16° N 10:20:59 10° NE daylight
11 Jul - 11:53:31 10° NW 11:56:21 24° NNE 11:59:10 10° ENE daylight
11 Jul - 13:30:01 10° WNW 13:33:22 72° SW 13:36:42 10° SE daylight
12 Jul - 06:13:06 10° SSW 06:16:01 28° SE 06:18:56 10° ENE daylight
12 Jul - 07:49:27 10° W 07:52:39 41° NNW 07:55:52 10° NE daylight
12 Jul - 09:27:42 10° NW 09:30:03 17° N 09:32:23 10° NE daylight
12 Jul - 11:05:07 10° NW 11:07:41 20° NNE 11:10:15 10° ENE daylight
12 Jul - 12:41:32 10° NW 12:44:53 68° NNE 12:48:13 10° ESE daylight
12 Jul - 14:19:14 10° W 14:21:15 15° SW 14:23:15 10° SSW daylight
13 Jul - 05:25:21 10° S 05:27:31 16° SE 05:29:42 10° E daylight
13 Jul - 07:00:35 10° WSW 07:03:54 64° NNW 07:07:14 10° NE daylight
13 Jul - 08:38:35 10° WNW 08:41:07 20° NNW 08:43:39 10° NE daylight
13 Jul - 10:16:23 10° NW 10:18:44 17° N 10:21:05 10° NE daylight
13 Jul - 11:52:52 10° NW 11:56:06 43° NNE 11:59:18 10° E daylight
13 Jul - 13:29:51 10° WNW 13:32:40 25° SW 13:35:29 10° SSE daylight
14 Jul - 06:11:39 10° SW 06:14:58 77° SE 06:18:19 10° ENE daylight
14 Jul - 07:49:12 10° WNW 07:51:58 23° NNW 07:54:45 10° NE daylight
14 Jul - 09:27:19 10° NW 09:29:32 16° N 09:31:44 10° NE daylight
14 Jul - 11:03:59 10° NW 11:07:00 30° NNE 11:10:00 10° E daylight
14 Jul - 12:40:35 10° WNW 12:43:47 44° SW 12:46:58 10° SSE daylight
15 Jul - 05:22:41 10° SSW 05:25:51 42° SE 05:29:02 10° ENE daylight
15 Jul - 06:59:36 10° W 07:02:37 31° NNW 07:05:38 10° NE daylight
15 Jul - 08:37:51 10° NW 08:40:03 16° N 08:42:15 10° NE daylight
15 Jul - 10:14:52 10° NW 10:17:36 23° NNE 10:20:20 10° ENE daylight
15 Jul - 11:51:15 10° WNW 11:54:36 80° SW 11:57:54 10° SE daylight
16 Jul - 04:33:49 10° S 04:36:33 24° SE 04:39:18 10° E visible
16 Jul - 06:09:52 10° WSW 06:13:04 44° NNW 06:16:17 10° NE daylight
16 Jul - 07:48:01 10° NW 07:50:21 17° N 07:52:40 10° NE daylight
16 Jul - 09:25:27 10° NW 09:27:55 19° NNE 09:30:23 10° ENE daylight
16 Jul - 11:01:47 10° NW 11:05:05 60° NNE 11:08:22 10° ESE daylight
16 Jul - 12:39:12 10° W 12:41:26 17° SW 12:43:40 10° S daylight
17 Jul - 03:45:17 10° SSE 03:47:04 14° SE 03:48:51 10° E visible
17 Jul - 05:20:02 10° WSW 05:23:20 73° NNW 05:26:38 10° NE daylight
17 Jul - 06:57:52 10° WNW 07:00:25 20° NNW 07:02:58 10° NE daylight
17 Jul - 08:35:42 10° NW 08:37:57 17° N 08:40:12 10° NE daylight
17 Jul - 10:12:08 10° NW 10:15:16 38° NNE 10:18:24 10° E daylight
17 Jul - 11:48:55 10° WNW 11:51:51 29° SW 11:54:46 10° SSE daylight
18 Jul - 04:30:09 10° SW 04:33:24 64° SE 04:36:41 10° ENE visible
18 Jul - 06:07:27 10° WNW 06:10:16 25° NNW 06:13:04 10° NE daylight
18 Jul - 07:45:35 10° NW 07:47:43 16° N 07:49:52 10° NE daylight
18 Jul - 09:22:16 10° NW 09:25:09 27° NNE 09:28:02 10° E daylight
18 Jul - 10:58:42 10° WNW 11:01:56 53° SW 11:05:09 10° SE daylight
19 Jul - 03:40:17 10° SSW 03:43:18 34° SE 03:46:20 10° ENE visible
19 Jul - 05:16:52 10° W 05:19:55 34° NNW 05:22:58 10° NE visible
19 Jul - 06:55:04 10° NW 06:57:14 16° N 06:59:25 10° NE daylight
19 Jul - 08:32:08 10° NW 08:34:44 21° NNE 08:37:20 10° ENE daylight
19 Jul - 10:08:25 10° NW 10:11:43 84° NE 10:15:01 10° ESE daylight
19 Jul - 11:46:39 10° WSW 11:47:52 12° SW 11:49:05 10° SSW daylight
20 Jul - 02:50:36 10° S 02:53:02 19° SE 02:55:28 10° E visible
20 Jul - 04:26:10 10° WSW 04:29:23 52° NNW 04:32:37 10° NE visible
20 Jul - 06:04:10 10° WNW 06:06:32 18° N 06:08:53 10° NE daylight
20 Jul - 07:41:42 10° NW 07:44:02 18° N 07:46:21 10° NE daylight
20 Jul - 09:17:59 10° NW 09:21:11 49° NNE 09:24:23 10° ESE daylight
20 Jul - 10:55:02 10° W 10:57:34 21° SW 11:00:05 10° S daylight
